When you browse on this site, cookies collect data to enhance your experience and personalize the content and advertising you see.
Visit our Privacy Policy to learn more. By continuing to use the site, you agree to this use of cookies and data.
  • In Hungary
  • List of Countries
  • For 7 days
  • Water Temperature
  • Satellite Maps
  • Weather Map
  • News
  • Weather Widgets
  • user-avatar
    Login

    Hourly Weather Haga

    Today, 18 November, Sunday

    Time Temperature Precipitation Wind Pressure Humidity
    00:00 +1°C° 0 mm 6 mps 773 mmHg 64%
    01:00 +1°C° 0 mm 6 mps 773 mmHg 65%
    02:00 +1°C° 0 mm 6 mps 773 mmHg 66%
    03:00 -1°C° 0 mm 6 mps 773 mmHg 67%
    04:00 -1°C° 0 mm 6 mps 773 mmHg 66%
    05:00 -1°C° 0 mm 7 mps 773 mmHg 66%
    06:00 -1°C° 0 mm 7 mps 773 mmHg 65%
    07:00 -1°C° 0 mm 7 mps 773 mmHg 61%
    08:00 -1°C° 0 mm 7 mps 773 mmHg 58%
    09:00 0°C° 0 mm 7 mps 773 mmHg 54%
    10:00 +2°C° 0 mm 7 mps 773 mmHg 50%
    11:00 +3°C° 0 mm 7 mps 773 mmHg 46%
    12:00 +5°C° 0 mm 7 mps 772 mmHg 43%
    13:00 +4°C° 0 mm 7 mps 772 mmHg 42%
    14:00 +4°C° 0 mm 7 mps 772 mmHg 41%
    15:00 +4°C° 0 mm 7 mps 772 mmHg 39%
    16:00 +4°C° 0 mm 7 mps 771 mmHg 41%
    17:00 +3°C° 0 mm 7 mps 771 mmHg 42%
    18:00 +2°C° 0 mm 7 mps 771 mmHg 43%
    19:00 +1°C° 0 mm 8 mps 771 mmHg 50%
    20:00 +1°C° 0 mm 8 mps 771 mmHg 57%
    21:00 0°C° 0 mm 8 mps 771 mmHg 64%
    22:00 +1°C° 0 mm 8 mps 771 mmHg 70%
    23:00 +1°C° 0 mm 8 mps 771 mmHg 75%

    Tomorrow, 19 November, Monday

    Time Temperature Precipitation Wind Pressure Humidity
    00:00 +1°C° 0 mm 8 mps 771 mmHg 81%
    01:00 +1°C° 0 mm 8 mps 770 mmHg 83%
    02:00 +1°C° 0 mm 8 mps 770 mmHg 84%
    03:00 +1°C° 0 mm 8 mps 770 mmHg 86%
    04:00 +1°C° 0 mm 8 mps 769 mmHg 87%
    05:00 +1°C° 0 mm 8 mps 769 mmHg 87%
    06:00 +1°C° 0 mm 8 mps 769 mmHg 88%
    07:00 +2°C° 0 mm 8 mps 769 mmHg 84%
    08:00 +2°C° 0 mm 9 mps 768 mmHg 81%
    09:00 +3°C° 0 mm 9 mps 768 mmHg 77%
    10:00 +5°C° 0.1 mm 9 mps 768 mmHg 73%
    11:00 +5°C° 0.1 mm 9 mps 767 mmHg 68%
    12:00 +6°C° 0.1 mm 9 mps 767 mmHg 63%
    13:00 +6°C° 0.1 mm 9 mps 766 mmHg 64%
    14:00 +5°C° 0.1 mm 9 mps 765 mmHg 64%
    15:00 +5°C° 0.1 mm 9 mps 765 mmHg 65%
    16:00 +5°C° 0.1 mm 9 mps 765 mmHg 66%
    17:00 +3°C° 0.1 mm 10 mps 764 mmHg 67%
    18:00 +3°C° 0.1 mm 10 mps 764 mmHg 69%
    19:00 +2°C° 0 mm 10 mps 764 mmHg 70%
    20:00 +2°C° 0 mm 10 mps 764 mmHg 71%
    21:00 +1°C° 0 mm 10 mps 764 mmHg 72%
    22:00 +1°C° 0 mm 10 mps 764 mmHg 73%
    23:00 +1°C° 0 mm 10 mps 763 mmHg 73%

    Day after tomorrow, 20 November, Tuesday

    Time Temperature Precipitation Wind Pressure Humidity
    00:00 0°C° 0 mm 10 mps 763 mmHg 74%
    01:00 0°C° 0 mm 10 mps 763 mmHg 73%
    02:00 0°C° 0 mm 10 mps 762 mmHg 71%
    03:00 0°C° 0 mm 10 mps 762 mmHg 70%
    04:00 0°C° 0 mm 10 mps 761 mmHg 70%
    05:00 0°C° 0 mm 10 mps 761 mmHg 69%
    06:00 -1°C° 0 mm 11 mps 760 mmHg 69%
    07:00 -1°C° 0 mm 11 mps 760 mmHg 68%
    08:00 -1°C° 0 mm 11 mps 760 mmHg 68%
    09:00 -1°C° 0 mm 11 mps 759 mmHg 67%
    10:00 -1°C° 0.1 mm 11 mps 759 mmHg 65%
    11:00 +1°C° 0.1 mm 11 mps 759 mmHg 64%
    12:00 +1°C° 0.1 mm 10 mps 758 mmHg 62%
    13:00 +1°C° 0 mm 10 mps 758 mmHg 63%
    14:00 +1°C° 0 mm 10 mps 757 mmHg 63%
    15:00 +1°C° 0 mm 10 mps 757 mmHg 64%
    16:00 0°C° 0.5 mm 10 mps 757 mmHg 70%
    17:00 0°C° 0.5 mm 10 mps 757 mmHg 75%
    18:00 -2°C° 0.5 mm 10 mps 756 mmHg 81%
    19:00 -2°C° 0.9 mm 10 mps 756 mmHg 83%
    20:00 -1°C° 0.9 mm 9 mps 756 mmHg 86%
    21:00 -1°C° 0.9 mm 9 mps 756 mmHg 89%
    22:00 -1°C° 0.6 mm 9 mps 756 mmHg 89%
    23:00 -1°C° 0.6 mm 9 mps 756 mmHg 90%

    21 November, Wednesday

    Time Temperature Precipitation Wind Pressure Humidity
    00:00 -3°C° 0.6 mm 9 mps 755 mmHg 91%
    01:00 -3°C° 0.4 mm 9 mps 755 mmHg 92%
    02:00 -3°C° 0.4 mm 9 mps 755 mmHg 92%
    03:00 -2°C° 0.4 mm 8 mps 755 mmHg 93%
    04:00 -2°C° 0.2 mm 8 mps 755 mmHg 94%
    05:00 -2°C° 0.2 mm 8 mps 755 mmHg 94%
    06:00 -2°C° 0.2 mm 8 mps 755 mmHg 94%
    07:00 -1°C° 0 mm 8 mps 756 mmHg 93%
    08:00 -1°C° 0 mm 8 mps 757 mmHg 91%
    09:00 -1°C° 0 mm 7 mps 758 mmHg 90%
    10:00 -1°C° 0 mm 7 mps 758 mmHg 88%
    11:00 0°C° 0 mm 7 mps 759 mmHg 87%
    12:00 +2°C° 0 mm 7 mps 760 mmHg 85%
    13:00 +1°C° 0 mm 6 mps 760 mmHg 86%
    14:00 +1°C° 0 mm 6 mps 761 mmHg 87%
    15:00 +1°C° 0 mm 6 mps 761 mmHg 88%
    16:00 -1°C° 0 mm 6 mps 762 mmHg 89%
    17:00 -1°C° 0 mm 6 mps 762 mmHg 91%
    18:00 -1°C° 0 mm 5 mps 763 mmHg 92%
    19:00 -1°C° 0 mm 5 mps 763 mmHg 93%
    20:00 -1°C° 0 mm 5 mps 763 mmHg 93%
    21:00 -1°C° 0 mm 5 mps 764 mmHg 94%
    22:00 -1°C° 0 mm 5 mps 764 mmHg 94%
    23:00 -2°C° 0 mm 5 mps 764 mmHg 95%

    22 November, Thursday

    Time Temperature Precipitation Wind Pressure Humidity
    00:00 -2°C° 0 mm 5 mps 764 mmHg 95%
    01:00 -2°C° 0 mm 5 mps 764 mmHg 95%
    02:00 -2°C° 0 mm 5 mps 764 mmHg 95%
    03:00 -2°C° 0 mm 5 mps 764 mmHg 95%
    04:00 -2°C° 0 mm 5 mps 764 mmHg 95%
    05:00 -2°C° 0 mm 5 mps 764 mmHg 95%
    06:00 -3°C° 0 mm 6 mps 764 mmHg 95%
    07:00 -2°C° 0 mm 6 mps 764 mmHg 94%
    08:00 -2°C° 0 mm 6 mps 764 mmHg 93%
    09:00 -1°C° 0 mm 6 mps 764 mmHg 92%
    10:00 -1°C° 0 mm 6 mps 764 mmHg 91%
    11:00 +1°C° 0 mm 6 mps 764 mmHg 90%
    12:00 +1°C° 0 mm 6 mps 764 mmHg 89%
    13:00 +1°C° 0 mm 6 mps 764 mmHg 89%
    14:00 +1°C° 0 mm 6 mps 764 mmHg 90%
    15:00 +1°C° 0 mm 5 mps 764 mmHg 90%
    16:00 +1°C° 0 mm 5 mps 764 mmHg 91%
    17:00 +1°C° 0 mm 5 mps 764 mmHg 91%
    18:00 +1°C° 0 mm 5 mps 764 mmHg 92%
    19:00 +1°C° 0 mm 5 mps 764 mmHg 92%
    20:00 +1°C° 0 mm 5 mps 765 mmHg 93%
    21:00 0°C° 0 mm 5 mps 765 mmHg 94%
    22:00 0°C° 0 mm 4 mps 765 mmHg 95%
    23:00 0°C° 0 mm 4 mps 765 mmHg 95%

    23 November, Friday

    Time Temperature Precipitation Wind Pressure Humidity
    00:00 -1°C° 0 mm 4 mps 765 mmHg 96%
    01:00 0°C° 0 mm 3 mps 765 mmHg 96%
    02:00 0°C° 0 mm 3 mps 765 mmHg 96%
    03:00 0°C° 0 mm 3 mps 765 mmHg 96%
    04:00 0°C° 0 mm 3 mps 765 mmHg 96%
    05:00 0°C° 0 mm 3 mps 765 mmHg 95%
    06:00 -1°C° 0 mm 3 mps 765 mmHg 95%
    07:00 +1°C° 0 mm 2 mps 765 mmHg 94%
    08:00 +1°C° 0 mm 2 mps 765 mmHg 92%
    09:00 +2°C° 0 mm 2 mps 766 mmHg 90%
    10:00 +3°C° 0 mm 2 mps 765 mmHg 87%
    11:00 +4°C° 0 mm 2 mps 765 mmHg 83%
    12:00 +6°C° 0 mm 1 mps 765 mmHg 80%
    13:00 +5°C° 0 mm 1 mps 765 mmHg 82%
    14:00 +5°C° 0 mm 1 mps 765 mmHg 85%
    15:00 +5°C° 0 mm 1 mps 765 mmHg 87%
    16:00 +4°C° 0 mm 1 mps 765 mmHg 88%
    17:00 +4°C° 0 mm 1 mps 766 mmHg 89%
    18:00 +3°C° 0 mm 1 mps 766 mmHg 90%
    19:00 +2°C° 0 mm 2 mps 766 mmHg 91%
    20:00 +2°C° 0 mm 2 mps 766 mmHg 91%
    21:00 +1°C° 0 mm 2 mps 766 mmHg 91%
    22:00 +1°C° 0 mm 2 mps 766 mmHg 90%
    23:00 +2°C° 0 mm 1 mps 766 mmHg 90%
    Show more